This is the latest recevied weather packets stored in our database for station/object F8BMG-Wx. If no packets are shown the sender has not sent any weather packets the latest 10 day(s).
| Time | Temp. | Humidity | Pressure | Rain* | Wind** | Luminosity | Snow |
|---|---|---|---|---|---|---|---|
| 1777989490 | 14.44° C | 99% | 1012.3 hPa | 0.25 mm | - | - | - |
| 1777989178 | 14.44° C | 99% | 1012.3 hPa | 0.25 mm | - | - | - |
| 1777988875 | 15° C | 99% | 1012.3 hPa | 0 mm | - | - | - |
| 1777988571 | 15.56° C | 99% | 1012.3 hPa | 0 mm | - | - | - |
| 1777988268 | 16.11° C | 99% | 1012.3 hPa | 0 mm | - | - | - |
| 1777987963 | 16.67° C | 99% | 1012.3 hPa | 0 mm | - | - | - |
| 1777987666 | 16.67° C | 99% | 1012.2 hPa | 0 mm | - | - | - |
| 1777987354 | 16.67° C | 99% | 1012.1 hPa | 0 mm | - | - | - |
| 1777987050 | 16.11° C | 99% | 1012 hPa | 0 mm | - | - | - |
| 1777986747 | 16.11° C | 99% | 1012.1 hPa | 0 mm | - | - | - |
| 1777986443 | 16.11° C | 99% | 1012.2 hPa | 0 mm | - | - | - |
| 1777986140 | 16.11° C | 99% | 1012.2 hPa | 0 mm | - | - | - |
| 1777985842 | 17.22° C | 99% | 1012.2 hPa | 0 mm | - | - | - |
| 1777985530 | 18.33° C | 99% | 1012.3 hPa | 0 mm | - | - | - |
| 1777985227 | 19.44° C | 99% | 1012.1 hPa | 0 mm | - | - | - |
| 1777984923 | 20° C | 97% | 1012 hPa | 0 mm | - | - | - |
| 1777984619 | 20° C | 99% | 1012 hPa | 0 mm | - | - | - |
| 1777984315 | 20° C | 99% | 1012 hPa | 0 mm | - | - | - |
| 1777984017 | 18.89° C | 99% | 1012 hPa | 0 mm | - | - | - |
| 1777983706 | 18.33° C | 99% | 1012 hPa | 0 mm | - | - | - |
| 1777983402 | 18.33° C | 99% | 1012.1 hPa | 0 mm | - | - | - |
| 1777983099 | 18.89° C | 99% | 1012.1 hPa | 0 mm | - | - | - |
| 1777982795 | 19.44° C | 99% | 1012.2 hPa | 0 mm | - | - | - |
| 1777982491 | 19.44° C | 99% | 1012.2 hPa | 0 mm | - | - | - |
| 1777982194 | 18.33° C | 99% | 1012.2 hPa | 0 mm | - | - | - |
* Rain latest hour (hover to see other rain measurements)
** Current wind speed in m/s (hover to see current wind gust speed)